This is the latest recevied weather packets stored in our database for station/object WD8INF-9. If no packets are shown the sender has not sent any weather packets the latest 1 day(s).
| Time | Temp. | Humidity | Pressure | Rain* | Wind** | Luminosity | Snow |
|---|---|---|---|---|---|---|---|
| 1836274744 | 20.56° C | - | 1016.9 hPa | 0 mm | 0 m/s | - | - |
| 1836274443 | 20.56° C | - | 1016.9 hPa | 0 mm | 0 m/s | - | - |
| 1836274294 | 20° C | - | 1017 hPa | 0 mm | 0 m/s | - | - |
| 1836274143 | 20.56° C | - | 1016.9 hPa | 0 mm | 0 m/s | - | - |
| 1778046607 | 8.89° C | - | 1006.2 hPa | 0 mm | 1.79 m/s, 312° | - | - |
| 1778046307 | 8.89° C | - | 1006.3 hPa | 0 mm | 2.24 m/s, 290° | - | - |
| 1778046007 | 8.89° C | - | 1006 hPa | 0 mm | 1.79 m/s, 347° | - | - |
| 1778045706 | 9.44° C | - | 1005.5 hPa | 0 mm | 1.34 m/s, 3° | - | - |
| 1778045406 | 9.44° C | - | 1006.2 hPa | 0 mm | 1.34 m/s, 338° | - | - |
| 1778045106 | 10° C | - | 1005.9 hPa | 0 mm | 0.45 m/s, 353° | - | - |
| 1778044805 | 10° C | - | 1005.9 hPa | 0 mm | 0.45 m/s, 309° | - | - |
| 1778044205 | 10° C | - | 1005.6 hPa | 0 mm | 0.89 m/s, 318° | - | - |
| 1778043905 | 10° C | - | 1005.5 hPa | 0 mm | 1.34 m/s, 312° | - | - |
| 1778043304 | 10.56° C | - | 1005.5 hPa | 0 mm | 0.45 m/s, 326° | - | - |
| 1778043004 | 10.56° C | - | 1005.6 hPa | 0 mm | 0.89 m/s, 342° | - | - |
| 1778042704 | 10.56° C | - | 1005.4 hPa | 0 mm | 0.89 m/s, 352° | - | - |
| 1778042404 | 10.56° C | - | 1005.8 hPa | 0 mm | 0.45 m/s, 342° | - | - |
| 1778042103 | 10.56° C | - | 1005.7 hPa | 0 mm | 0.89 m/s, 312° | - | - |
| 1778041803 | 11.11° C | - | 1005.6 hPa | 0 mm | 1.34 m/s, 330° | - | - |
| 1778041503 | 11.11° C | - | 1005.6 hPa | 0 mm | 0.89 m/s, 7° | - | - |
| 1778041203 | 11.67° C | - | 1005.6 hPa | 0 mm | 0.45 m/s, 342° | - | - |
| 1778040902 | 11.67° C | - | 1005.1 hPa | 0 mm | 0 m/s | - | - |
| 1778040602 | 11.67° C | - | 1005.1 hPa | 0 mm | 0 m/s | - | - |
| 1778040302 | 12.22° C | - | 1004.9 hPa | 0 mm | 0 m/s | - | - |
| 1778040002 | 12.22° C | - | 1005.3 hPa | 0 mm | 0.45 m/s, 343° | - | - |
* Rain since midnight (hover to see other rain measurements)
** Current wind speed in m/s (hover to see current wind gust speed)